[Iaude] MPEC M79: 2013 TP145 [a=22.86,e=0.41,i=29.3,H=9.6]

mpec at marsden.cfa.harvard.edu mpec at marsden.cfa.harvard.edu
Mon Jun 22 23:50:17 EDT 2020


M.P.E.C. 2020-M79                                 Issued 2020 June 23, 03:47 UT

     The Minor Planet Electronic Circulars contain information on unusual
         minor planets and routine data on comets.  They are published
    on behalf of Division F of the International Astronomical Union by the
          Minor Planet Center, Smithsonian Astrophysical Observatory,
                          Cambridge, MA 02138, U.S.A.

             Prepared using the Tamkin Foundation Computer Network

                              MPC at CFA.HARVARD.EDU
            URL https://www.minorplanetcenter.net/    ISSN 1523-6714

                                   2013 TP145                                   


Additional Observations:
     K13TE5P  C2009 10 10.14047122 14 11.44 -05 27 52.5          21.1 r EM079645
     K13TE5P  C2009 10 10.14130022 14 11.43 -05 27 52.5          20.8 i EM079645
     K13TE5P  C2009 10 10.14378822 14 11.41 -05 27 52.7          21.7 g EM079645
     K13TE5P  C2009 10 15.12012222 13 36.47 -05 29 42.9          21.5 r EM079645
     K13TE5P  C2009 10 15.12095122 13 36.47 -05 29 43.0          20.9 i EM079645
     K13TE5P  C2009 10 15.12343922 13 36.44 -05 29 43.0          21.9 g EM079645
     K13TE5P  C2010 09 15.29609 22 35 59.64 +00 09 39.5          21.0 VrEM079G96
     K13TE5P  C2010 09 15.30460 22 35 59.56 +00 09 39.6          20.8 VrEM079G96
     K13TE5P  C2010 09 15.31306 22 35 59.49 +00 09 39.2          20.9 VrEM079G96
     K13TE5P  C2010 09 15.32156 22 35 59.38 +00 09 39.0          20.8 VrEM079G96

Observer details:
645 Apache Point-Sloan Digital Sky Survey.  Observer .  Measurer S. Deen.
    2.5-m reflector + CCD.
G96 Mt. Lemmon Survey.  Observer E. Beshore.  Measurers J. D. Ahern, E. C.
    Beshore, A. Boattini, G. J. Garradd, A. R. Gibbs, A. D. Grauer, R. E.
    Hill, R. A. Kowalski, S. M. Larson, R. H. McNaught.  1.5-m reflector +
    CCD.

Orbital elements:
2013 TP145                                                                      
Epoch 2020 May 31.0 TT = JDT 2459000.5                  Pike                    
M  10.18598              (2000.0)            P               Q                  
n   0.00901738     Peri.   68.92984     +0.74330902     -0.61413344             
a  22.8603370      Node   327.17189     +0.26706106     +0.63591389             
e   0.4122368      Incl.   29.28754     +0.61332707     +0.46739024             
P 109              H    9.67          G   0.15           U   9                  
Residuals in seconds of arc
131008 809  0.2+  0.3+    131008 809  0.1+  0.2+    131029 809  0.1+  0.6+
131008 809  0.3-  0.8-    131008 809  0.1+  0.4-    131029 809  0.1+  0.2+
131008 809  0.3-  0.3+    131029 809  0.5-  0.2+
131008 809  0.2+  0.7-    131029 809  0.3+  0.2+

Ephemeris:
2013 TP145               a,e,i = 22.86, 0.41, 29                 q = 13.4365
Date    TT    R. A. (2000) Decl.     Delta      r    Elong.  Phase     V
2020 05 24    03 33 50.5 +47 18 54  14.7431 13.8504    27.2     1.9    21.5
...
2020 06 08    03 41 12.0 +47 40 57  14.7312 13.8613    30.0     2.1    21.5
...
2020 06 16    03 45 00.0 +47 54 25  14.7049 13.8671    33.3     2.3    21.5
...
2020 06 22    03 47 45.8 +48 05 13  14.6762 13.8715    36.4     2.5    21.5
2020 06 23    03 48 12.9 +48 07 04  14.6707 13.8722    37.0     2.5    21.5
2020 06 24    03 48 39.9 +48 08 56  14.6650 13.8730    37.5     2.6    21.5
...
2020 06 30    03 51 18.1 +48 20 26  14.6267 13.8774    41.2     2.8    21.5
...
2020 07 08    03 54 38.3 +48 36 28  14.5652 13.8833    46.4     3.0    21.5
...
2020 07 23    04 00 13.7 +49 08 19  14.4207 13.8945    57.1     3.5    21.5

M. P. C. Staff               (C) Copyright 2020 MPC           M.P.E.C. 2020-M79




More information about the Iaude mailing list